Location: Boncourt
(49.6160°N, 3.9448°E)
Time: 23:05:43
(UTC+00:00)

Cosmos 1340 - Pass Details

Date: 09 February 2023
Orbit: 479 x 484 km, 81.2° (Epoch: 21 March)

Event Time Altitude Azimuth Distance (km) Brightness Sun altitude
Rises 17:44:14 0° 348° (NNW) 2,559 6.2 -8.8°
Reaches altitude 10° 17:46:20 10° 348° (NNW) 1,676 5.3 -9.1°
Maximum altitude 17:50:01 89° 84° (E) 492 2.5 -9.7°
Drops below altitude 10° 17:53:40 10° 169° (S) 1,668 5.3 -10.3°
Sets 17:55:46 0° 169° (S) 2,545 6.2 -10.6°
